Back to catalog

STARLINK-35604

AliveCommunicationsVLEO
NORAD 66802·PAYLOAD·🇺🇸 United States

Launched Dec 1, 2025 from Cape Canaveral Space Force Station

Loading…

Next Passes (next 24 hours)

TLE

FreshSource: CelesTrak SupGP

Epoch: Sep 14, 2026, 21:42 UTC

1 66802C 25278M   26257.90465278 -.00055650  00000+0 -20161-2 0  2570
2 66802  43.0022 125.9572 0001355 273.6687 136.6265 15.27598951    11

Track STARLINK-35604 in real time with AllMySat

Download on the App Store